Regional Weather Roundup
Issued by NWS Sioux Falls, SD

Home | Current Version | Previous Version | Text Only | Print | Product List | Glossary Off
Versions: 1 2 3 4 5 6 7 8 9 10 11 12 13 14 15 16 17 18 19 20 21 22 23 24 25 26 27 28 29 30 31 32 33 34 35 36 37 38 39 40 41 42 43 44 45 46 47 48 49 50

000
ASUS43 KFSD 221010
RWRFSD

WEATHER ROUNDUP FOR SE SOUTH DAKOTA/SW MINNESOTA/NW IOWA
NATIONAL WEATHER SERVICE SIOUX FALLS SD
500 AM CDT THU JUN 22 2017

NOTE: "FAIR" INDICATES FEW OR NO CLOUDS BELOW 12,000 FEET WITH NO
SIGNIFICANT WEATHER AND OR OBSTRUCTIONS TO VISIBILITY.


SDZ038>040-050-052>070-221100-
SOUTHEAST SOUTH DAKOTA

CITY           SKY/WX    TMP DP  RH WIND       PRES   REMARKS
BROOKINGS      CLOUDY    66  58  75 NE9       29.71F
CHAMBERLAIN    CLOUDY    70  50  49 NE16G26   29.68F
HURON          CLOUDY    63  58  83 NE13G18   29.73  THUNDER
MADISON        FAIR      66  54  63 NE17G28   29.69F
MITCHELL       CLOUDY    71  53  52 NE20G25   29.65F
SIOUX FALLS    CLOUDY    69  63  81 N14G25    29.67R
WINNER         FAIR      68  54  60 NE12      29.68R
YANKTON        CLEAR     71  70  96 N8        29.61R
$$

MNZ071-072-080-081-089-090-097-098-221100-
SOUTHWEST MINNESOTA

CITY           SKY/WX    TMP DP  RH WIND       PRES   REMARKS
FAIRMONT       PTCLDY    69  64  84 S6        29.66R
JACKSON        CLEAR     68  63  83 CALM      29.65R
LUVERNE        PTCLDY    68  63  83 N9G18     29.67R
MARSHALL       TSTM      64  61  88 NW7       29.71R
MONTEVIDEO     LGT RAIN  68  64  88 NW7       29.71R
PIPESTONE      PTCLDY    70  57  64 N15G24    29.68F
REDWOOD FALLS  CLOUDY    70  65  84 N6        29.67S
TRACY          CLOUDY    70  68  95 NW17G24   29.72R
WINDOM         CLEAR     66  64  94 NW10      29.66R
WORTHINGTON    MOCLDY    67  66  97 NW15      29.68R FOG
$$

IAZ001>003-012>014-020>022-031-032-NEZ013-014-SDZ071-221100-
NORTHWEST IOWA

CITY           SKY/WX    TMP DP  RH WIND       PRES   REMARKS
CHEROKEE       CLOUDY    73  64  71 S12       29.62S
DENISON        PTCLDY    75  61  60 S15G22    29.67F
ESTHERVILLE    CLEAR     67  64  90 S8        29.62S
LE MARS        CLEAR     72  61  68 S9        29.61R
ORANGE CITY    CLEAR     72  61  68 S9        29.61R
SHELDON        PTCLDY    72  61  68 S7        29.61R
SIOUX CITY     CLEAR     77  61  57 S14G22    29.60F
SPENCER        MOCLDY    69  62  78 S6        29.61F
STORM LAKE     MOCLDY    73  63  68 S15       29.65S
$$

ABBREVIATIONS USED IN REMARKS
   TC - TEMPERATURE IN CELSIUS
  WCI - WIND CHILL INDEX
   HX - HEAT INDEX
  VSB - VISIBILITY




USA.gov is the U.S. government's official web portal to all federal, state and local government web resources and services.